Hourly Weather Bolshie Ozerki

Today, 29 July, Thursday

Time Temperature Precipitation Wind Pressure Humidity
00:00 +20°C° 0 mm 3 mps 743 mmHg 71%
01:00 +20°C° 0.1 mm 3 mps 743 mmHg 74%
02:00 +20°C° 0.1 mm 3 mps 743 mmHg 77%
03:00 +19°C° 0.1 mm 3 mps 742 mmHg 80%
04:00 +19°C° 0 mm 3 mps 742 mmHg 80%
05:00 +19°C° 0 mm 2 mps 742 mmHg 81%
06:00 +19°C° 0 mm 2 mps 742 mmHg 82%
07:00 +21°C° 0 mm 3 mps 742 mmHg 73%
08:00 +24°C° 0 mm 3 mps 742 mmHg 65%
09:00 +26°C° 0 mm 3 mps 741 mmHg 57%
10:00 +27°C° 0 mm 4 mps 741 mmHg 52%
11:00 +29°C° 0 mm 4 mps 741 mmHg 48%
12:00 +30°C° 0 mm 4 mps 741 mmHg 43%
13:00 +30°C° 0 mm 4 mps 740 mmHg 42%
14:00 +30°C° 0 mm 4 mps 740 mmHg 42%
15:00 +30°C° 0 mm 4 mps 740 mmHg 41%
16:00 +30°C° 0 mm 4 mps 740 mmHg 42%
17:00 +29°C° 0 mm 4 mps 740 mmHg 44%
18:00 +29°C° 0 mm 4 mps 740 mmHg 46%
19:00 +27°C° 0 mm 3 mps 740 mmHg 49%
20:00 +26°C° 0 mm 3 mps 740 mmHg 52%
21:00 +25°C° 0 mm 2 mps 740 mmHg 55%
22:00 +24°C° 0 mm 2 mps 740 mmHg 58%
23:00 +23°C° 0 mm 2 mps 740 mmHg 60%

Tomorrow, 30 July, Friday

Time Temperature Precipitation Wind Pressure Humidity
00:00 +23°C° 0 mm 2 mps 740 mmHg 63%
01:00 +21°C° 0 mm 2 mps 740 mmHg 65%
02:00 +21°C° 0 mm 2 mps 740 mmHg 66%
03:00 +20°C° 0 mm 2 mps 740 mmHg 68%
04:00 +21°C° 0 mm 2 mps 740 mmHg 67%
05:00 +21°C° 0 mm 2 mps 740 mmHg 67%
06:00 +23°C° 0 mm 2 mps 740 mmHg 67%
07:00 +25°C° 0 mm 3 mps 740 mmHg 61%
08:00 +27°C° 0 mm 3 mps 740 mmHg 55%
09:00 +29°C° 0 mm 4 mps 740 mmHg 49%
10:00 +30°C° 0 mm 5 mps 740 mmHg 45%
11:00 +33°C° 0 mm 5 mps 739 mmHg 41%
12:00 +34°C° 0 mm 6 mps 739 mmHg 37%
13:00 +34°C° 0 mm 6 mps 739 mmHg 37%
14:00 +34°C° 0 mm 6 mps 739 mmHg 36%
15:00 +34°C° 0 mm 5 mps 738 mmHg 36%
16:00 +33°C° 0.2 mm 5 mps 738 mmHg 42%
17:00 +30°C° 0.2 mm 4 mps 738 mmHg 49%
18:00 +29°C° 0.2 mm 3 mps 738 mmHg 56%
19:00 +28°C° 0.1 mm 3 mps 738 mmHg 60%
20:00 +26°C° 0.1 mm 2 mps 739 mmHg 63%
21:00 +25°C° 0.1 mm 2 mps 739 mmHg 67%
22:00 +25°C° 0.2 mm 2 mps 739 mmHg 70%
23:00 +24°C° 0.2 mm 1 mps 739 mmHg 73%

Day after tomorrow, 31 July, Saturday

Time Temperature Precipitation Wind Pressure Humidity
00:00 +23°C° 0.2 mm 1 mps 740 mmHg 76%
01:00 +23°C° 0 mm 2 mps 740 mmHg 77%
02:00 +21°C° 0 mm 2 mps 740 mmHg 78%
03:00 +21°C° 0 mm 2 mps 740 mmHg 79%
04:00 +21°C° 0 mm 2 mps 740 mmHg 79%
05:00 +21°C° 0 mm 2 mps 740 mmHg 78%
06:00 +21°C° 0 mm 2 mps 740 mmHg 78%
07:00 +23°C° 0 mm 2 mps 741 mmHg 68%
08:00 +25°C° 0 mm 2 mps 741 mmHg 58%
09:00 +27°C° 0 mm 3 mps 741 mmHg 48%
10:00 +28°C° 0 mm 3 mps 741 mmHg 43%
11:00 +29°C° 0 mm 3 mps 741 mmHg 39%
12:00 +31°C° 0 mm 3 mps 741 mmHg 34%
13:00 +31°C° 0 mm 3 mps 741 mmHg 32%
14:00 +33°C° 0 mm 3 mps 741 mmHg 30%
15:00 +34°C° 0 mm 3 mps 741 mmHg 28%
16:00 +33°C° 0 mm 3 mps 741 mmHg 29%
17:00 +33°C° 0 mm 3 mps 741 mmHg 30%
18:00 +31°C° 0 mm 3 mps 741 mmHg 32%
19:00 +30°C° 0 mm 3 mps 741 mmHg 35%
20:00 +28°C° 0 mm 2 mps 741 mmHg 38%
21:00 +26°C° 0 mm 1 mps 742 mmHg 41%
22:00 +25°C° 0 mm 1 mps 742 mmHg 45%
23:00 +24°C° 0 mm 1 mps 742 mmHg 48%

1 August, Sunday

Time Temperature Precipitation Wind Pressure Humidity
00:00 +23°C° 0 mm 1 mps 742 mmHg 51%
01:00 +23°C° 0 mm 1 mps 742 mmHg 53%
02:00 +22°C° 0 mm 1 mps 743 mmHg 55%
03:00 +21°C° 0 mm 1 mps 743 mmHg 58%
04:00 +22°C° 0 mm 1 mps 743 mmHg 59%
05:00 +22°C° 0 mm 1 mps 743 mmHg 60%
06:00 +22°C° 0 mm 1 mps 743 mmHg 60%
07:00 +24°C° 0 mm 1 mps 743 mmHg 54%
08:00 +26°C° 0 mm 1 mps 743 mmHg 48%
09:00 +29°C° 0 mm 1 mps 743 mmHg 42%
10:00 +30°C° 0 mm 2 mps 743 mmHg 39%
11:00 +32°C° 0 mm 2 mps 743 mmHg 35%
12:00 +34°C° 0 mm 3 mps 743 mmHg 31%
13:00 +35°C° 0 mm 3 mps 743 mmHg 29%
14:00 +35°C° 0 mm 3 mps 743 mmHg 27%
15:00 +36°C° 0 mm 4 mps 742 mmHg 25%
16:00 +35°C° 0 mm 4 mps 742 mmHg 26%
17:00 +35°C° 0 mm 4 mps 742 mmHg 27%
18:00 +35°C° 0 mm 4 mps 742 mmHg 28%
19:00 +31°C° 0 mm 3 mps 742 mmHg 32%
20:00 +29°C° 0 mm 3 mps 742 mmHg 35%
21:00 +27°C° 0 mm 3 mps 742 mmHg 38%
22:00 +26°C° 0 mm 3 mps 742 mmHg 40%
23:00 +26°C° 0 mm 2 mps 742 mmHg 42%

2 August, Monday

Time Temperature Precipitation Wind Pressure Humidity
00:00 +25°C° 0 mm 2 mps 742 mmHg 44%
01:00 +24°C° 0 mm 2 mps 742 mmHg 46%
02:00 +24°C° 0 mm 2 mps 742 mmHg 49%
03:00 +24°C° 0 mm 2 mps 742 mmHg 52%
04:00 +23°C° 0.1 mm 2 mps 742 mmHg 56%
05:00 +23°C° 0.1 mm 2 mps 742 mmHg 61%
06:00 +23°C° 0.1 mm 2 mps 742 mmHg 65%
07:00 +26°C° 0 mm 2 mps 742 mmHg 57%
08:00 +28°C° 0 mm 2 mps 742 mmHg 50%
09:00 +31°C° 0 mm 3 mps 741 mmHg 42%
10:00 +33°C° 0 mm 3 mps 741 mmHg 37%
11:00 +35°C° 0 mm 4 mps 741 mmHg 33%
12:00 +37°C° 0 mm 4 mps 741 mmHg 29%
13:00 +37°C° 0 mm 5 mps 740 mmHg 27%
14:00 +37°C° 0 mm 5 mps 740 mmHg 26%
15:00 +38°C° 0 mm 6 mps 739 mmHg 24%
16:00 +36°C° 0.1 mm 6 mps 739 mmHg 28%
17:00 +35°C° 0.1 mm 5 mps 739 mmHg 31%
18:00 +34°C° 0.1 mm 5 mps 739 mmHg 34%
19:00 +30°C° 0 mm 5 mps 739 mmHg 41%
20:00 +28°C° 0 mm 4 mps 739 mmHg 48%
21:00 +26°C° 0 mm 4 mps 739 mmHg 55%
22:00 +25°C° 0 mm 4 mps 739 mmHg 58%
23:00 +25°C° 0 mm 4 mps 739 mmHg 61%

3 August, Tuesday

Time Temperature Precipitation Wind Pressure Humidity
00:00 +23°C° 0 mm 4 mps 739 mmHg 64%
01:00 +23°C° 0.1 mm 4 mps 739 mmHg 65%
02:00 +22°C° 0.1 mm 4 mps 739 mmHg 66%
03:00 +22°C° 0.1 mm 3 mps 739 mmHg 67%
04:00 +22°C° 0 mm 3 mps 739 mmHg 68%
05:00 +24°C° 0 mm 3 mps 739 mmHg 69%
06:00 +24°C° 0 mm 3 mps 739 mmHg 69%
07:00 +25°C° 0 mm 4 mps 739 mmHg 67%
08:00 +26°C° 0 mm 5 mps 740 mmHg 64%
09:00 +27°C° 0 mm 6 mps 740 mmHg 61%
10:00 +26°C° 0.2 mm 5 mps 740 mmHg 64%
11:00 +25°C° 0.2 mm 4 mps 741 mmHg 68%
12:00 +24°C° 0.2 mm 3 mps 741 mmHg 71%
13:00 +24°C° 0.1 mm 3 mps 741 mmHg 69%
14:00 +24°C° 0.1 mm 3 mps 741 mmHg 68%
15:00 +24°C° 0.1 mm 3 mps 742 mmHg 66%
16:00 +25°C° 0 mm 3 mps 741 mmHg 60%
17:00 +26°C° 0 mm 3 mps 741 mmHg 55%
18:00 +26°C° 0 mm 3 mps 741 mmHg 49%
19:00 +25°C° 0 mm 3 mps 741 mmHg 51%
20:00 +23°C° 0 mm 2 mps 742 mmHg 54%
21:00 +21°C° 0 mm 2 mps 742 mmHg 56%
22:00 +20°C° 0 mm 2 mps 742 mmHg 58%
23:00 +19°C° 0 mm 2 mps 743 mmHg 59%
Show more

We Need Your Consent

Meteoprog and our Service Providers may store and access personal data such as cookies, device identifiers or other similar technologies on your device and process such data to personalise content and ads, as well as provide social media features and to analyse the traffic.

  • Store and/or access information on your device

    Cookies, device identifiers or other information can be stored or accessed on your device for the purposes indicated above.

  • Personalised ads and content, ad and content measurement, audience insights, and products development

    Ads and content can be personalised based on a profile. More data can be added to better personalise ads and content. Ad and content performance can be measured. Insights about the audience who saw the ads and content can be derived. Such data can be used to develop or improve user’s experience, systems and software.

By clicking ‘I Agree’ you will allow the use of indicated cookies, device identifiers, web beacons or other similar technologies. Your settings can be changed in the browser on your device.

For certain purposes, legitimate interests may be relied on, rather than consent. You can read more about this in our Privacy and Cookie Policy.